Watertown, NY

11:23 AM EDT on August 16, 2017 (GMT -0400)
Watertown International

Weather History for KART - July, 2013

Change the Weather History Date:

Sunday, July 21, 2013

  Actual Average Record
Temperature  
Mean Temperature 67 °F 69 °F  
Max Temperature 77 °F 80 °F 94 °F (1964)
Min Temperature 56 °F 59 °F 45 °F (1966)
Degree Days  
Heating Degree Days 0 1  
Month to date heating degree days 0 22  
Since 1 June heating degree days 103 129  
Since 1 July heating degree days 0 22  
Cooling Degree Days 2 5  
Month to date cooling degree days 204 94  
Year to date cooling degree days 310 167  
Since 1 June cooling degree days 278 156  
Growing Degree Days 17 (Base 50)    
Moisture  
Dew Point 54 °F    
Average Humidity 64    
Maximum Humidity 87    
Minimum Humidity 40    
Precipitation  
Precipitation 0.00 in 0.09 in 1.02 in (1995)
Month to date precipitation 1.72 1.74  
Year to date precipitation 18.38 17.74  
Sea Level Pressure  
Sea Level Pressure 29.97 in    
Wind  
Wind Speed 7 mph (NE)    
Max Wind Speed 14 mph    
Max Gust Speed 17 mph    
Visibility 10 miles    
Events      
T = Trace of Precipitation, MM = Missing Value Source: NWS Daily Summary

Daily Weather History Graph

Daily Weather History Graph

Search for Another Location

Airport or City:

Trip Planner

Search our weather history database for the weather conditions in past years. The results will help you decide how hot, cold, wet, or windy it might be!

Date:

Astronomy

Jul. 21, 2013 Rise Set
Actual Time 5:41 AM EDT 8:39 PM EDT
Civil Twilight 5:06 AM EDT 9:13 PM EDT
Nautical Twilight 4:23 AM EDT 9:57 PM EDT
Astronomical Twilight 3:31 AM EDT 10:48 PM EDT
Moon 7:33 PM EDT (7/21) 4:24 AM EDT (7/21)
Length of Visible Light 16h 06m
Length of Day
14h 58m
Waxing Gibbous, 98% of the Moon is Illuminated
Jul 21
Waxing Gibbous
Jul 22
Full
Jul 29
Last Quarter
Aug 6
New
Aug 14
First Quarter

Hourly Weather History & Observations

Time (EDT) Temp. Dew Point Humidity Pressure Visibility Wind Dir Wind Speed Gust Speed Precip Events Conditions
12:56 AM 64.9 °F 61.0 °F 87% 29.85 in 10.0 mi NNE 3.5 mph - N/A   Clear
1:56 AM 63.0 °F 57.9 °F 84% 29.87 in 10.0 mi NE 3.5 mph - N/A   Clear
2:56 AM 63.0 °F 55.9 °F 78% 29.89 in 10.0 mi NNE 10.4 mph - N/A   Clear
3:56 AM 61.0 °F 54.0 °F 78% 29.91 in 10.0 mi NE 10.4 mph - N/A   Scattered Clouds
4:56 AM 59.0 °F 53.1 °F 81% 29.93 in 10.0 mi ENE 10.4 mph - N/A   Partly Cloudy
5:56 AM 57.0 °F 50.0 °F 77% 29.96 in 10.0 mi ENE 4.6 mph - N/A   Clear
6:56 AM 60.1 °F 51.1 °F 72% 29.97 in 10.0 mi NNE 6.9 mph - N/A   Clear
7:56 AM 62.1 °F 52.0 °F 70% 29.99 in 10.0 mi NE 11.5 mph - N/A   Clear
8:56 AM 64.0 °F 52.0 °F 65% 30.00 in 10.0 mi NE 9.2 mph - N/A   Clear
9:56 AM 66.0 °F 53.1 °F 63% 30.00 in 10.0 mi NE 11.5 mph - N/A   Clear
10:56 AM 70.0 °F 54.0 °F 57% 30.00 in 10.0 mi NE 9.2 mph - N/A   Clear
11:56 AM 73.0 °F 52.0 °F 48% 30.01 in 10.0 mi NE 10.4 mph - N/A   Clear
12:56 PM 75.0 °F 53.1 °F 46% 30.01 in 10.0 mi Variable 5.8 mph - N/A   Clear
1:56 PM 75.9 °F 53.1 °F 45% 30.00 in 10.0 mi NNE 10.4 mph 17.3 mph N/A   Clear
2:56 PM 75.9 °F 52.0 °F 43% 29.99 in 10.0 mi NE 6.9 mph - N/A   Clear
3:56 PM 77.0 °F 52.0 °F 42% 29.98 in 10.0 mi Variable 5.8 mph - N/A   Clear
4:56 PM 75.9 °F 54.0 °F 46% 29.97 in 10.0 mi Variable 5.8 mph - N/A   Clear
5:56 PM 75.0 °F 55.0 °F 50% 29.97 in 10.0 mi North 6.9 mph - N/A   Clear
6:56 PM 75.0 °F 54.0 °F 48% 29.97 in 10.0 mi North 8.1 mph - N/A   Clear
7:56 PM 72.0 °F 54.0 °F 53% 29.97 in 10.0 mi North 4.6 mph - N/A   Clear
8:56 PM 64.0 °F 55.9 °F 75% 29.98 in 10.0 mi Calm Calm - N/A   Clear
9:56 PM 59.0 °F 55.0 °F 87% 30.00 in 10.0 mi East 3.5 mph - N/A   Clear
10:56 PM 57.0 °F 54.0 °F 89% 30.00 in 10.0 mi East 3.5 mph - N/A   Clear
11:56 PM 57.9 °F 54.0 °F 87% 30.00 in 10.0 mi East 5.8 mph - N/A   Clear